When you browse on this site, cookies collect data to enhance your experience and personalize the content and advertising you see.
Visit our Privacy Policy to learn more. By continuing to use the site, you agree to this use of cookies and data.
  • In United Kingdom
  • List of Countries
  • For 7 days
  • Water Temperature
  • Satellite Maps
  • Weather Map
  • Weather Widgets
  • user-avatar
    Login

    Hourly Weather Jaszczerz

    Today, 24 January, Thursday

    Time Temperature Precipitation Wind Pressure Humidity
    00:00 -9°C° 0 mm 3 mps 750 mmHg 82%
    01:00 -8°C° 0 mm 2 mps 750 mmHg 84%
    02:00 -8°C° 0 mm 2 mps 750 mmHg 84%
    03:00 -9°C° 0 mm 2 mps 750 mmHg 85%
    04:00 -9°C° 0 mm 2 mps 750 mmHg 85%
    05:00 -9°C° 0 mm 2 mps 751 mmHg 85%
    06:00 -9°C° 0 mm 2 mps 751 mmHg 85%
    07:00 -10°C° 0 mm 3 mps 751 mmHg 85%
    08:00 -10°C° 0 mm 3 mps 752 mmHg 83%
    09:00 -10°C° 0 mm 3 mps 752 mmHg 80%
    10:00 -9°C° 0 mm 3 mps 752 mmHg 78%
    11:00 -9°C° 0 mm 3 mps 752 mmHg 75%
    12:00 -8°C° 0 mm 3 mps 752 mmHg 72%
    13:00 -7°C° 0 mm 3 mps 753 mmHg 69%
    14:00 -7°C° 0 mm 3 mps 753 mmHg 71%
    15:00 -8°C° 0 mm 3 mps 752 mmHg 73%
    16:00 -8°C° 0 mm 3 mps 752 mmHg 75%
    17:00 -8°C° 0 mm 3 mps 752 mmHg 76%
    18:00 -8°C° 0 mm 3 mps 753 mmHg 78%
    19:00 -9°C° 0 mm 3 mps 753 mmHg 79%
    20:00 -9°C° 0 mm 3 mps 753 mmHg 80%
    21:00 -9°C° 0 mm 3 mps 753 mmHg 80%
    22:00 -9°C° 0 mm 3 mps 753 mmHg 80%
    23:00 -10°C° 0 mm 3 mps 753 mmHg 81%

    Tomorrow, 25 January, Friday

    Time Temperature Precipitation Wind Pressure Humidity
    00:00 -9°C° 0 mm 2 mps 753 mmHg 81%
    01:00 -9°C° 0 mm 2 mps 753 mmHg 82%
    02:00 -9°C° 0 mm 2 mps 753 mmHg 82%
    03:00 -9°C° 0 mm 2 mps 752 mmHg 82%
    04:00 -9°C° 0 mm 2 mps 752 mmHg 83%
    05:00 -9°C° 0 mm 2 mps 752 mmHg 82%
    06:00 -9°C° 0 mm 2 mps 752 mmHg 82%
    07:00 -9°C° 0 mm 2 mps 752 mmHg 81%
    08:00 -8°C° 0 mm 2 mps 752 mmHg 80%
    09:00 -8°C° 0 mm 2 mps 752 mmHg 79%
    10:00 -7°C° 0 mm 1 mps 752 mmHg 77%
    11:00 -6°C° 0.1 mm 1 mps 752 mmHg 77%
    12:00 -6°C° 0.1 mm 1 mps 751 mmHg 76%
    13:00 -4°C° 0.1 mm 1 mps 751 mmHg 76%
    14:00 -4°C° 0 mm 1 mps 751 mmHg 76%
    15:00 -4°C° 0 mm 1 mps 751 mmHg 76%
    16:00 -4°C° 0 mm 1 mps 750 mmHg 76%
    17:00 -4°C° 0 mm 1 mps 750 mmHg 76%
    18:00 -4°C° 0 mm 1 mps 750 mmHg 77%
    19:00 -4°C° 0 mm 1 mps 750 mmHg 77%
    20:00 -6°C° 0 mm 2 mps 749 mmHg 77%
    21:00 -6°C° 0 mm 2 mps 749 mmHg 76%
    22:00 -6°C° 0 mm 2 mps 749 mmHg 76%
    23:00 -6°C° 0 mm 2 mps 748 mmHg 75%

    Day after tomorrow, 26 January, Saturday

    Time Temperature Precipitation Wind Pressure Humidity
    00:00 -6°C° 0 mm 2 mps 747 mmHg 75%
    01:00 -7°C° 0 mm 3 mps 747 mmHg 74%
    02:00 -7°C° 0 mm 3 mps 746 mmHg 74%
    03:00 -7°C° 0 mm 3 mps 745 mmHg 74%
    04:00 -7°C° 0 mm 3 mps 744 mmHg 74%
    05:00 -7°C° 0.1 mm 3 mps 744 mmHg 78%
    06:00 -7°C° 0.1 mm 3 mps 743 mmHg 81%
    07:00 -7°C° 0.1 mm 3 mps 742 mmHg 84%
    08:00 -7°C° 0.3 mm 3 mps 741 mmHg 86%
    09:00 -7°C° 0.3 mm 3 mps 741 mmHg 87%
    10:00 -6°C° 0.3 mm 3 mps 740 mmHg 88%
    11:00 -5°C° 0.3 mm 2 mps 740 mmHg 88%
    12:00 -5°C° 0.3 mm 2 mps 740 mmHg 88%
    13:00 -2°C° 0.3 mm 1 mps 739 mmHg 88%
    14:00 -2°C° 0 mm 1 mps 739 mmHg 87%
    15:00 -4°C° 0 mm 2 mps 740 mmHg 87%
    16:00 -4°C° 0 mm 2 mps 740 mmHg 86%
    17:00 -5°C° 0 mm 2 mps 740 mmHg 87%
    18:00 -5°C° 0 mm 2 mps 740 mmHg 88%
    19:00 -3°C° 0 mm 1 mps 741 mmHg 89%
    20:00 -3°C° 0 mm 1 mps 741 mmHg 91%
    21:00 -4°C° 0 mm 1 mps 741 mmHg 92%
    22:00 -4°C° 0 mm 1 mps 742 mmHg 93%
    23:00 -5°C° 0 mm 0 mps 742 mmHg 93%

    27 January, Sunday

    Time Temperature Precipitation Wind Pressure Humidity
    00:00 -6°C° 0 mm 0 mps 742 mmHg 94%
    01:00 -6°C° 0 mm 0 mps 742 mmHg 94%
    02:00 -6°C° 0 mm 0 mps 742 mmHg 94%
    03:00 -6°C° 0 mm 1 mps 741 mmHg 94%
    04:00 -6°C° 0 mm 1 mps 741 mmHg 94%
    05:00 -7°C° 0 mm 2 mps 741 mmHg 92%
    06:00 -7°C° 0 mm 2 mps 741 mmHg 91%
    07:00 -7°C° 0 mm 2 mps 740 mmHg 89%
    08:00 -8°C° 0 mm 3 mps 740 mmHg 88%
    09:00 -8°C° 0 mm 3 mps 740 mmHg 87%
    10:00 -8°C° 0 mm 4 mps 740 mmHg 85%
    11:00 -8°C° 0.1 mm 4 mps 739 mmHg 85%
    12:00 -7°C° 0.1 mm 4 mps 739 mmHg 85%
    13:00 -7°C° 0.1 mm 4 mps 739 mmHg 85%
    14:00 -7°C° 0.2 mm 4 mps 738 mmHg 86%
    15:00 -7°C° 0.2 mm 4 mps 738 mmHg 88%
    16:00 -7°C° 0.2 mm 4 mps 738 mmHg 90%
    17:00 -7°C° 0.2 mm 4 mps 738 mmHg 90%
    18:00 -7°C° 0.2 mm 4 mps 737 mmHg 90%
    19:00 -7°C° 0.2 mm 4 mps 737 mmHg 90%
    20:00 -5°C° 0.1 mm 4 mps 737 mmHg 91%
    21:00 -5°C° 0.1 mm 4 mps 737 mmHg 91%
    22:00 -6°C° 0.1 mm 5 mps 737 mmHg 91%
    23:00 -5°C° 0.1 mm 4 mps 736 mmHg 92%

    28 January, Monday

    Time Temperature Precipitation Wind Pressure Humidity
    00:00 -5°C° 0.1 mm 4 mps 736 mmHg 92%
    01:00 -5°C° 0.1 mm 4 mps 736 mmHg 93%
    02:00 -5°C° 0.3 mm 4 mps 736 mmHg 93%
    03:00 -4°C° 0.3 mm 4 mps 735 mmHg 94%
    04:00 -4°C° 0.3 mm 3 mps 735 mmHg 95%
    05:00 -4°C° 0.2 mm 3 mps 735 mmHg 96%
    06:00 -3°C° 0.2 mm 2 mps 735 mmHg 96%
    07:00 -2°C° 0.2 mm 2 mps 735 mmHg 97%
    08:00 -2°C° 0 mm 2 mps 735 mmHg 97%
    09:00 -1°C° 0 mm 2 mps 735 mmHg 97%
    10:00 -1°C° 0 mm 2 mps 735 mmHg 97%
    11:00 -1°C° 0.1 mm 2 mps 735 mmHg 97%
    12:00 +1°C° 0.1 mm 2 mps 735 mmHg 97%
    13:00 +1°C° 0.1 mm 2 mps 735 mmHg 98%
    14:00 +1°C° 0.2 mm 2 mps 735 mmHg 98%
    15:00 -1°C° 0.2 mm 2 mps 735 mmHg 98%
    16:00 -1°C° 0.2 mm 2 mps 735 mmHg 98%
    17:00 +1°C° 0.1 mm 1 mps 735 mmHg 98%
    18:00 +1°C° 0.1 mm 1 mps 735 mmHg 97%
    19:00 +1°C° 0.1 mm 1 mps 735 mmHg 97%
    20:00 +1°C° 0.1 mm 1 mps 735 mmHg 97%
    21:00 0°C° 0.1 mm 1 mps 735 mmHg 97%
    22:00 0°C° 0.1 mm 1 mps 735 mmHg 97%
    23:00 0°C° 0.1 mm 1 mps 735 mmHg 97%

    29 January, Tuesday

    Time Temperature Precipitation Wind Pressure Humidity
    00:00 0°C° 0.1 mm 1 mps 735 mmHg 97%
    01:00 0°C° 0.1 mm 1 mps 735 mmHg 97%
    02:00 -1°C° 0.6 mm 2 mps 736 mmHg 97%
    03:00 -1°C° 0.6 mm 2 mps 736 mmHg 96%
    04:00 -1°C° 0.6 mm 3 mps 736 mmHg 96%
    05:00 -2°C° 0.3 mm 4 mps 737 mmHg 93%
    06:00 -3°C° 0.3 mm 6 mps 737 mmHg 90%
    07:00 -3°C° 0.3 mm 7 mps 738 mmHg 87%
    08:00 -3°C° 0.2 mm 6 mps 739 mmHg 85%
    09:00 -3°C° 0.2 mm 6 mps 740 mmHg 84%
    10:00 -4°C° 0.2 mm 5 mps 741 mmHg 83%
    11:00 -4°C° 0.2 mm 5 mps 742 mmHg 82%
    12:00 -4°C° 0.2 mm 5 mps 742 mmHg 80%
    13:00 -4°C° 0.2 mm 5 mps 743 mmHg 79%
    14:00 -3°C° 0.1 mm 4 mps 744 mmHg 80%
    15:00 -2°C° 0.1 mm 3 mps 744 mmHg 80%
    16:00 -4°C° 0.1 mm 3 mps 745 mmHg 80%
    17:00 -5°C° 0 mm 3 mps 745 mmHg 83%
    18:00 -5°C° 0 mm 2 mps 745 mmHg 86%
    19:00 -6°C° 0 mm 2 mps 745 mmHg 89%
    20:00 -5°C° 0 mm 2 mps 745 mmHg 90%
    21:00 -6°C° 0 mm 3 mps 745 mmHg 92%
    22:00 -6°C° 0 mm 3 mps 746 mmHg 93%
    23:00 -6°C° 0 mm 3 mps 746 mmHg 93%
    Show more